This demonstration page uses our WeatherBlox Daily Observations layout. Learn more.

Left ArrowRight Arrow

39.95238, -75.16362

Hourly Observations for April 21, 2022

Temp ( °F °C ) Dew Point ( °F °C ) Humidity (%) Winds ( mph kmh ) Pressure ( in mb ) Visibility ( mi km ) Precip ( " mm )
12:54 am 00:54 Partly Cloudy 47 8.3 37 2.8 69 69 SSE 6 9 30.48 1032 10 16 0.00 0.00
1:54 am 01:54 Partly Cloudy 45 7.2 37 2.8 74 74 SSE 7 11 30.47 1032 10 16 0.00 0.00
2:54 am 02:54 Partly Cloudy 45 7.2 36 2.2 71 71 SSW 5 7 30.47 1032 10 16 0.00 0.00
3:54 am 03:54 Mostly Cloudy 43 6.1 36 2.2 76 76 W 3 6 30.48 1032 10 16 0.00 0.00
4:54 am 04:54 Mostly Cloudy 44 6.7 35 1.7 71 71 SE 5 7 30.48 1032 10 16 0.00 0.00
5:54 am 05:54 Mostly Cloudy 44 6.7 37 2.8 76 76 VRB 5 7 30.49 1033 10 16 0.00 0.00
6:54 am 06:54 Mostly Cloudy 44 6.7 38 3.3 79 79 SSE 5 7 30.49 1033 10 16 0.00 0.00
7:54 am 07:54 Mostly Cloudy 49 9.4 43 6.1 80 80 S 8 13 30.50 1033 10 16 0.00 0.00
8:54 am 08:54 Mostly Cloudy 52 11.1 41 5 66 66 SSW 9 15 30.50 1033 10 16 0.00 0.00
9:54 am 09:54 Cloudy 56 13.3 36 2.2 47 47 SSW 12 19 30.49 1032 10 16 0.00 0.00
10:54 am 10:54 Cloudy 58 14.4 36 2.2 44 44 SSW 13 20 30.48 1032 10 16 0.00 0.00
11:54 am 11:54 Cloudy 62 16.7 37 2.8 40 40 SW 12 19 30.47 1032 10 16 0.00 0.00
12:54 pm 12:54 Cloudy 62 16.7 38 3.3 41 41 SSW 12 19 30.44 1031 10 16 0.00 0.00
1:54 pm 13:54 Cloudy 62 16.7 40 4.4 44 44 S 14 22 30.42 1030 10 16 0.00 0.00
2:54 pm 14:54 Cloudy 63 17.2 41 5 45 45 S 16 26 30.38 1029 10 16 0.00 0.00
3:54 pm 15:54 Mostly Cloudy 62 16.7 41 5 46 46 SSW 15 24 30.36 1028 10 16 0.00 0.00
4:54 pm 16:54 Mostly Cloudy 61 16.1 42 5.6 50 50 SSW 16 26 30.33 1027 10 16 0.00 0.00
5:54 pm 17:54 Mostly Cloudy 61 16.1 42 5.6 50 50 SSW 16 26 30.33 1027 10 16 0.00 0.00
6:54 pm 18:54 Cloudy 60 15.6 43 6.1 53 53 S 10 17 30.33 1027 10 16 0.00 0.00
7:54 pm 19:54 Cloudy 59 15 41 5 51 51 S 9 15 30.35 1028 10 16 0.00 0.00
8:54 pm 20:54 Cloudy 59 15 42 5.6 54 54 S 6 9 30.34 1027 10 16 0.00 0.00
9:54 pm 21:54 Cloudy 59 15 42 5.6 54 54 SSW 7 11 30.35 1028 10 16 0.00 0.00
10:54 pm 22:54 Mostly Cloudy 57 13.9 42 5.6 58 58 SSW 6 9 30.35 1028 10 16 0.00 0.00
11:54 pm 23:54 Partly Cloudy 56 13.3 44 6.7 65 65 SSW 6 9 30.36 1028 10 16 0.00 0.00

Powered by AerisWeather